RH
40 37 33 30 27 24 22 22 20 20 19 18 18 18 18 18 18 17 18 20 26 34 44 54 66 77 86 85 85 86 85 84 83 84 86 86 86 86 86 87 87 87 86 86 87 87 88 88 88 88 88 87 87 87 86 86 86 86 86 86 86 86 87 87 87 87 87 87 87 86 85 84 83 83 83 82 81 80 78 77 74 71 67 64 62 61
34 32 29 27 24 22 19 18 18 17 16 16 16 16 18 19 20 21 22 26 31 39 49 57 68 78 86 85 85 85 86 85 84 84 85 86 86 86 86 87 87 86 86 86 86 86 87 88 88 88 88 87 86 86 85 85 85 85 85 84 84 85 86 86 86 86 86 86 86 85 84 84 84 84 84 83 81 79 77 76 73 70 66 64 63 62
37 34 32 30 28 26 24 22 21 20 18 18 17 16 17 18 21 24 29 34 40 49 58 66 73 80 86 85 84 84 86 86 85 85 85 86 87 86 86 86 86 86 86 85 85 85 86 87 87 87 87 86 86 84 83 83 84 84 84 83 83 84 85 86 86 86 86 85 85 84 84 84 84 84 84 82 80 78 77 74 72 69 67 66 65 64
40 38 36 34 34 33 32 31 30 29 28 27 26 24 22 20 21 24 29 38 49 59 70 76 80 84 85 84 84 84 85 86 86 86 85 86 86 86 86 85 85 86 86 85 85 85 86 86 87 87 86 86 84 82 80 81 82 83 83 82 83 84 84 85 85 84 84 84 84 84 84 84 84 84 82 80 78 77 76 73 70 68 66 66 65 65
45 44 42 42 40 40 40 42 42 42 40 39 38 36 33 28 24 24 26 37 50 64 76 82 84 85 85 84 84 84 85 86 86 86 86 85 85 85 86 85 85 86 86 86 86 85 86 86 86 86 86 85 82 80 77 78 81 82 83 83 82 83 83 83 83 82 82 83 84 84 84 84 83 82 81 79 77 76 74 70 68 66 65 64 64 65
52 53 53 52 52 52 53 55 55 55 53 51 48 45 42 36 31 27 26 36 49 63 75 80 84 85 86 86 86 86 86 86 86 86 86 86 85 85 85 85 86 86 86 86 86 86 85 85 85 85 85 84 80 77 74 76 78 82 83 82 82 82 81 80 80 80 82 83 84 83 83 82 82 81 80 78 77 75 73 69 66 65 64 64 64 65
66 68 68 64 63 64 66 68 69 70 70 67 64 60 55 48 42 36 32 38 48 60 70 76 82 85 86 86 86 86 86 86 86 86 86 86 86 86 85 86 86 86 86 86 86 86 85 85 84 84 84 82 78 74 70 72 76 80 82 82 82 81 80 79 80 81 82 84 84 83 82 82 81 80 79 78 76 75 72 68 66 64 64 64 64 66
79 81 81 78 73 70 70 73 76 80 82 80 79 78 74 71 65 59 55 53 56 63 71 78 84 86 87 87 86 86 87 87 87 87 87 87 86 86 86 86 86 87 87 87 86 86 86 85 84 84 82 79 75 72 69 71 75 79 82 82 82 81 80 81 82 83 84 84 84 83 82 82 81 80 79 78 76 75 71 68 66 65 64 64 66 67
81 84 84 84 78 70 68 68 72 77 80 82 82 83 83 84 81 77 76 74 74 76 79 84 86 87 87 86 86 86 86 86 87 87 87 87 86 86 86 86 86 87 87 87 86 86 86 86 85 83 81 78 75 72 71 72 74 77 80 81 81 81 82 83 84 85 85 85 84 84 83 82 82 80 79 78 76 74 71 68 66 65 65 66 68 69
72 78 82 83 76 67 62 61 63 66 72 79 82 82 84 83 82 82 82 82 82 84 84 84 84 84 84 86 86 86 86 86 86 87 87 87 86 86 86 86 86 87 87 87 87 86 86 86 85 84 82 80 78 76 74 74 74 76 77 79 80 82 83 84 84 84 85 85 85 84 83 82 82 80 79 78 76 74 70 68 67 66 67 68 70 71
56 63 71 75 71 63 57 55 56 58 62 72 77 80 80 77 76 78 82 84 84 84 84 79 76 76 78 82 85 86 86 86 86 87 87 87 86 86 85 85 85 85 86 87 87 87 87 86 86 85 84 82 80 78 77 75 74 74 76 78 80 82 83 82 82 82 82 84 85 85 84 84 82 81 80 78 76 74 70 68 68 68 69 70 71 72
48 50 54 58 59 57 53 52 52 53 56 62 68 72 73 70 68 68 72 77 80 81 82 79 74 71 70 74 80 84 86 86 86 86 87 87 86 86 85 84 84 84 84 85 86 86 87 87 86 86 84 82 81 79 77 76 74 75 76 79 81 82 82 81 80 79 80 83 85 86 86 85 84 82 81 79 76 74 71 70 70 70 71 72 73 74
48 46 46 46 47 48 48 49 50 51 54 56 60 63 64 64 64 63 64 66 68 71 78 81 80 77 73 72 74 78 84 86 86 87 87 87 87 86 86 85 84 84 84 84 84 84 85 86 86 85 84 82 80 79 77 76 76 77 79 82 82 82 81 80 79 79 80 82 85 86 86 85 84 83 82 79 76 74 71 71 72 72 73 74 74 75
49 47 45 44 43 43 43 45 47 49 51 54 56 58 59 60 61 62 62 62 62 63 70 78 80 80 81 77 74 74 78 82 85 87 87 86 87 86 86 86 86 85 84 84 84 84 84 84 85 84 84 82 80 79 78 78 79 81 83 84 83 82 81 80 79 80 81 84 85 86 86 85 84 84 82 79 76 74 72 73 74 74 75 76 76 76
51 49 48 46 44 42 42 42 44 46 49 51 53 55 57 58 60 61 62 62 61 60 62 74 80 81 82 82 79 76 74 77 82 86 86 86 86 86 86 86 86 86 86 85 85 84 84 84 84 84 82 82 81 81 81 82 83 84 85 84 83 82 80 80 81 82 84 85 86 86 86 85 84 83 81 78 76 74 74 74 75 76 77 78 78 77
56 54 52 50 47 46 44 43 44 45 47 49 52 54 56 58 59 60 61 62 62 61 60 66 74 81 83 82 81 78 74 74 77 82 86 86 86 86 85 86 86 85 85 85 85 85 84 83 82 82 81 81 82 83 84 85 85 85 84 84 82 82 81 82 83 84 86 86 86 86 85 85 84 82 80 78 76 76 76 76 77 78 79 79 79 78
62 60 57 55 52 50 48 47 47 47 48 49 51 53 56 58 58 60 60 60 61 61 61 60 65 72 79 81 81 78 73 70 72 77 83 84 83 82 84 84 85 86 85 84 84 82 82 81 80 80 81 83 85 86 86 86 85 84 84 83 82 82 83 84 86 86 86 86 86 85 85 84 83 82 80 78 77 77 78 79 80 80 81 81 80 79
64 64 62 60 58 56 54 53 52 51 50 51 52 53 55 56 57 58 58 59 60 61 61 60 60 61 64 70 73 72 68 66 66 69 77 80 82 83 82 83 84 84 84 83 82 80 79 79 79 80 82 85 86 86 86 85 84 84 83 83 84 84 85 86 87 87 86 86 85 85 84 84 82 82 80 79 79 79 80 82 82 82 82 82 81 80
60 62 63 64 63 62 60 59 58 56 56 55 54 54 54 55 56 57 58 58 58 59 60 59 58 55 54 55 57 58 58 59 60 62 69 74 80 85 85 85 85 84 84 82 80 78 77 77 79 82 85 86 87 87 86 85 84 84 84 84 85 86 86 87 87 86 86 85 84 84 84 83 82 81 80 80 81 82 83 84 84 84 84 82 82 81
54 56 58 60 62 64 64 63 62 61 60 58 57 56 55 55 55 55 56 56 56 56 56 55 53 50 48 46 46 48 50 53 55 58 63 69 74 78 82 84 84 84 82 80 78 76 76 78 81 84 86 87 88 87 87 86 86 86 86 86 86 87 86 86 86 86 85 84 84 83 82 82 82 82 81 82 83 84 86 86 85 85 84 84 82 81
50 51 52 54 57 60 62 62 62 61 61 60 60 58 58 56 55 54 53 52 52 52 51 50 48 46 45 46 47 48 48 49 51 54 59 66 70 72 76 79 81 81 80 78 76 76 77 80 83 86 87 87 87 87 87 87 87 87 87 87 87 86 86 86 86 85 84 84 83 82 82 82 82 82 83 84 85 86 87 86 86 85 84 83 82 79
40 45 48 50 51 54 56 57 58 60 60 60 60 60 60 58 57 55 52 50 49 48 47 45 44 44 48 54 59 61 58 54 51 52 56 61 66 70 73 76 78 77 76 76 76 78 82 84 86 87 87 87 87 87 87 87 87 87 87 86 86 86 86 87 86 86 85 84 84 84 84 84 84 84 86 86 87 87 87 86 86 85 84 82 80 76
24 32 38 44 47 50 52 54 57 59 60 61 60 60 60 61 62 61 58 53 49 46 43 41 40 44 51 64 73 77 74 68 61 56 55 57 61 67 72 76 77 77 77 80 82 85 86 87 87 87 87 87 87 87 87 87 87 86 87 86 86 86 87 87 87 86 86 86 85 85 86 86 86 87 88 88 88 87 87 86 86 84 83 80 77 73
12 17 24 31 38 43 48 52 56 58 61 62 62 62 62 64 66 68 68 63 56 50 43 39 39 43 51 67 79 84 82 78 72 64 56 53 54 58 64 71 77 81 82 84 84 85 86 86 86 86 86 86 86 86 86 84 84 84 85 86 86 86 86 87 87 87 87 87 87 87 88 88 88 88 88 88 88 87 87 86 85 84 81 78 74 70
6 8 12 17 24 32 39 45 51 56 61 63 64 65 65 66 68 70 73 71 66 58 48 42 40 43 51 66 78 84 84 82 78 72 64 56 50 49 53 65 76 83 84 84 85 85 85 85 86 86 86 86 85 84 83 81 80 80 81 84 85 86 87 87 87 87 87 88 88 88 88 88 88 88 88 87 87 87 86 85 84 82 79 75 71 67
4 4 6 8 12 18 25 33 42 49 56 61 64 66 66 67 68 70 74 74 72 67 58 49 44 43 49 60 72 81 84 82 80 77 73 63 54 48 49 63 76 84 84 85 85 85 85 85 85 85 85 84 84 82 80 78 77 76 78 80 83 85 87 87 87 87 88 88 88 88 88 88 88 87 87 87 87 86 86 84 82 79 76 71 68 65
4 3 3 4 5 8 12 19 28 38 47 56 62 66 68 68 68 70 72 74 74 72 66 58 50 46 46 54 64 74 80 81 80 80 78 71 62 53 50 63 74 83 85 85 85 85 85 85 85 84 84 83 82 80 78 77 77 78 79 80 82 84 86 86 87 87 88 88 88 88 88 88 87 87 87 87 86 85 84 82 80 76 72 68 65 63
4 3 3 3 3 4 5 8 14 23 33 45 55 62 68 70 71 72 72 72 72 73 72 66 59 52 48 51 58 67 74 76 78 79 80 77 69 60 54 60 69 78 83 84 84 84 84 84 84 83 82 82 81 80 80 80 81 82 82 83 84 84 85 85 86 86 87 87 88 88 88 87 87 87 87 86 85 84 82 80 76 73 69 66 64 62
3 3 3 3 3 3 3 3 6 10 17 28 41 53 64 70 74 74 72 71 72 73 74 71 66 60 54 53 56 62 68 71 74 76 78 78 74 68 60 58 60 67 76 80 82 82 82 83 83 82 82 82 82 83 84 84 84 84 84 84 84 84 84 85 85 86 87 87 87 87 87 87 87 86 86 86 84 82 80 77 74 70 67 65 63 61
3 3 3 3 3 3 3 3 3 4 6 12 22 35 50 62 71 74 74 72 73 74 75 74 70 66 61 58 60 62 65 68 70 73 75 78 76 73 66 61 60 62 69 76 79 80 80 80 82 82 83 84 85 86 86 86 86 85 85 85 85 85 84 85 86 86 86 87 87 87 87 87 86 86 86 84 83 80 78 74 70 68 66 64 62 60
3 3 3 3 3 3 3 3 3 3 2 4 9 17 29 44 58 69 74 75 74 74 74 75 74 71 67 66 66 68 69 70 72 73 74 77 77 75 72 68 65 64 67 72 75 76 76 78 80 82 84 86 86 86 86 85 85 85 84 85 85 85 85 86 86 86 86 87 87 86 86 86 86 86 85 83 81 78 74 71 68 66 65 64 62 60
4 4 4 4 3 3 3 3 3 3 2 2 4 7 12 24 39 55 69 74 76 76 75 76 76 74 72 72 73 74 74 76 76 75 75 77 78 77 76 74 72 70 69 71 72 73 74 76 78 80 82 83 84 84 84 84 84 84 84 84 85 85 86 86 86 86 86 86 86 86 86 86 86 85 84 82 79 75 71 68 67 66 65 64 62 60
4 4 4 4 4 4 3 3 3 3 3 2 2 3 5 11 22 37 55 69 76 78 77 77 77 77 76 76 76 76 78 79 78 76 77 80 81 81 80 79 77 74 72 72 73 74 75 77 78 78 77 77 78 79 80 80 80 81 82 84 85 86 86 86 86 86 86 86 86 86 86 86 85 84 82 80 76 72 69 68 66 66 65 64 62 58
5 5 4 4 4 4 4 4 3 3 3 3 2 2 3 5 10 20 36 56 70 79 80 80 79 79 79 78 78 78 80 80 79 78 80 82 84 84 84 82 80 78 76 77 78 78 79 79 78 76 74 72 72 73 74 75 76 78 81 83 85 86 86 86 86 86 86 86 86 86 86 85 84 82 80 77 73 70 68 67 67 66 66 64 61 58
6 6 5 5 4 4 4 4 4 3 3 3 3 2 2 3 4 10 19 38 57 73 81 82 81 81 80 80 80 79 80 79 79 79 81 83 84 84 84 84 84 82 82 82 82 82 82 80 78 76 74 72 70 70 71 73 75 78 80 83 85 86 86 86 86 86 86 86 86 85 85 84 82 80 78 74 71 68 68 68 68 67 66 64 61 57
7 6 6 6 5 4 4 4 4 4 3 3 3 3 2 2 3 4 8 21 39 59 76 82 83 82 82 82 81 80 78 76 76 77 80 82 84 84 84 84 84 83 82 83 84 83 82 80 78 76 74 73 72 70 70 73 76 78 82 84 85 86 86 86 86 86 86 85 85 85 84 83 81 78 75 72 69 68 68 68 68 67 66 63 60 56
8 8 7 6 6 5 4 4 4 4 3 3 3 3 2 2 2 3 4 10 22 40 62 76 82 84 84 83 82 81 79 76 74 74 77 80 82 83 84 84 84 82 82 84 84 84 83 82 79 77 76 75 74 74 73 74 77 80 84 85 85 85 85 86 86 85 85 85 85 84 84 82 80 76 74 71 69 69 69 69 69 68 66 63 60 56
9 8 8 7 6 5 5 4 4 4 3 3 3 3 3 2 2 2 2 4 10 22 42 63 77 84 85 84 84 82 81 79 77 76 76 77 79 81 83 84 84 84 84 84 84 84 84 83 82 80 78 77 76 76 76 78 81 84 85 85 85 85 85 85 85 85 85 85 84 84 83 81 78 76 73 71 70 70 70 70 69 68 65 62 59 55
10 8 8 7 6 6 5 4 4 4 3 3 3 2 2 3 3 3 2 2 4 10 23 45 65 78 84 85 85 84 83 82 80 79 78 78 78 79 80 81 82 83 83 84 84 84 84 84 84 83 82 81 80 79 80 82 84 85 85 85 85 85 85 85 85 85 85 84 84 84 82 80 77 75 73 72 71 71 71 71 69 68 65 62 58 55
10 9 8 7 6 6 5 4 4 3 3 3 2 2 2 3 3 3 3 2 2 5 11 28 48 68 81 84 85 84 84 84 83 82 82 81 80 79 78 78 78 79 79 80 82 83 84 84 84 84 84 84 84 84 84 85 85 85 84 84 84 85 85 85 85 85 85 84 84 83 82 79 77 75 74 72 72 72 72 71 70 67 64 62 58 55
10 8 8 7 6 5 4 4 4 3 3 2 2 2 2 2 3 3 4 3 3 3 4 14 31 52 72 81 84 84 84 84 84 84 84 84 82 81 79 78 76 76 75 76 77 80 84 84 85 85 85 85 85 85 85 85 85 85 84 84 85 85 85 85 85 85 84 84 84 82 81 79 77 76 74 73 72 72 72 71 70 67 64 61 58 54
9 8 7 6 6 5 4 4 3 3 2 2 2 2 2 3 3 4 4 4 3 3 2 6 17 35 58 74 82 84 84 84 84 84 85 84 84 83 81 80 77 76 74 74 77 81 84 85 85 86 86 86 86 85 85 85 85 84 84 84 85 85 85 85 85 85 84 84 82 81 80 78 77 76 74 73 73 73 73 71 69 66 64 60 57 53
8 7 6 6 5 4 4 3 3 2 2 2 2 2 2 3 3 4 4 4 4 3 2 2 8 20 40 62 76 84 84 84 84 84 84 85 85 84 83 82 80 78 76 78 81 84 84 85 85 85 86 86 85 85 85 85 85 84 85 85 85 84 84 84 84 84 84 83 82 80 79 78 77 76 74 74 74 73 73 71 68 66 63 60 57 53
7 6 6 5 4 4 3 2 2 2 2 2 2 2 3 3 4 4 4 4 4 4 3 2 4 10 24 47 66 79 84 84 84 84 84 85 85 85 84 84 82 81 80 82 84 84 84 85 85 85 85 85 85 85 85 85 84 84 85 85 85 85 85 84 84 84 84 82 81 80 79 78 77 76 75 75 74 74 72 70 68 66 63 60 57 53
6 6 5 4 4 3 2 2 2 2 2 2 3 3 4 4 4 4 4 4 4 4 4 3 2 6 14 33 52 68 80 82 84 84 84 85 85 85 85 85 84 84 83 84 84 85 85 85 85 85 85 85 85 84 84 84 84 84 85 85 85 85 84 84 84 84 83 82 81 80 79 78 78 77 76 76 75 74 72 70 68 66 64 61 58 53
6 5 4 4 3 3 2 2 2 2 3 4 4 4 4 4 5 5 5 5 5 5 4 4 3 4 9 22 38 55 71 79 82 84 84 84 85 85 85 85 85 85 85 85 85 85 85 85 85 85 84 84 84 84 84 84 84 84 84 85 85 85 84 84 84 84 83 82 82 81 80 79 78 78 78 77 76 74 73 70 68 67 65 62 58 53
5 4 4 3 3 2 2 2 3 4 4 5 5 5 5 6 6 6 6 5 5 5 5 4 4 4 6 13 26 40 57 71 80 83 84 84 84 84 85 85 85 85 85 85 84 84 84 84 85 85 84 84 84 84 84 84 84 84 84 84 84 84 84 84 84 84 83 83 82 82 81 80 80 79 79 78 77 76 74 72 70 68 66 62 58 52
4 4 3 3 2 2 2 3 4 5 6 7 7 7 6 6 6 6 6 6 6 6 6 6 5 4 4 8 15 27 42 61 74 82 84 84 84 84 84 84 85 85 85 84 84 84 84 85 85 84 84 84 84 84 84 84 84 84 84 84 84 84 84 84 84 84 84 84 83 82 82 82 81 80 79 78 78 76 74 73 70 68 65 61 56 50
4 3 3 2 2 3 4 4 6 7 8 8 8 8 8 8 8 8 7 7 7 7 7 7 6 5 4 5 9 16 28 48 66 79 84 84 84 84 84 84 84 84 84 84 84 84 84 85 85 85 85 85 85 85 85 85 85 85 85 84 84 84 84 84 84 84 84 84 84 83 83 82 82 80 80 79 78 76 75 73 71 68 64 60 55 49
3 3 2 2 3 4 4 6 7 8 9 10 10 10 9 9 8 8 8 8 8 8 8 8 7 6 5 5 6 10 18 36 56 74 84 83 83 84 84 84 84 84 84 84 84 84 84 84 85 85 86 86 86 86 86 86 86 85 85 85 84 84 85 85 85 85 84 84 84 84 83 82 82 80 80 79 78 76 75 73 71 68 64 60 54 48
3 2 2 3 4 4 6 7 8 9 10 10 10 10 10 10 10 10 10 10 10 10 9 8 8 7 6 5 5 6 11 26 46 67 81 82 83 83 84 84 84 84 84 84 84 84 84 84 84 85 86 86 86 86 86 86 86 86 86 85 85 85 85 85 85 85 84 84 84 84 83 82 81 80 79 78 77 76 75 73 72 70 66 61 55 48
Wind_Speed
18 18 18 18 19 20 21 22 23 24 25 26 27 27 27 28 28 29 29 30 32 33 33 33 33 33 32 30 30 34 40 45 49 52 52 51 48 46 45 44 45 45 44 41 37 33 30 27 25 23 21 19 18 18 18 19 17 16 15 15 15 17 18 19 20 21 21 22 22 22 22 23 23 23 24 25 26 27 28 29 29 30 30 30 30 30
16 16 17 17 18 18 19 20 21 22 23 25 25 26 26 27 27 28 29 30 32 33 33 33 32 32 33 30 27 28 33 40 44 47 47 47 45 43 42 42 43 43 42 38 33 30 28 26 25 23 21 19 19 19 20 19 18 16 14 14 15 17 18 19 20 21 21 22 22 22 23 22 22 22 23 24 26 27 28 29 30 30 30 30 30 31
13 14 14 15 16 16 17 18 20 21 22 23 24 25 26 26 26 27 28 30 31 32 32 32 31 32 33 32 29 28 30 34 38 41 41 41 40 38 38 38 39 40 39 35 32 30 29 28 26 24 22 20 20 21 21 20 18 16 14 14 15 16 17 18 20 20 21 22 22 22 22 22 22 22 23 25 27 28 29 30 30 30 31 31 31 31
10 10 11 12 13 14 15 16 17 18 19 20 22 23 24 25 26 27 28 29 31 31 31 31 31 32 33 33 32 31 32 34 36 37 37 37 36 35 34 34 36 37 37 35 33 31 31 30 28 26 22 21 21 23 23 22 19 16 14 14 14 15 16 17 19 20 21 22 22 22 22 22 22 23 25 27 28 29 30 31 31 31 31 31 32 32
10 10 10 10 11 12 12 13 14 14 16 17 18 20 21 23 24 26 28 30 31 31 31 31 31 32 32 33 34 34 35 36 36 36 36 35 35 34 33 34 35 37 36 35 33 32 31 30 28 25 23 22 23 25 25 24 21 18 15 14 13 14 15 16 18 19 21 21 22 22 23 23 23 25 27 28 30 31 31 31 31 31 31 32 32 32
12 11 11 11 11 11 11 11 11 11 12 12 14 15 17 19 21 24 27 29 30 31 30 30 31 31 32 33 34 36 37 37 37 37 36 36 36 36 36 37 38 38 36 34 32 31 30 28 26 24 23 24 26 27 27 26 23 20 17 14 14 14 15 16 17 18 19 21 22 23 24 24 24 26 28 30 31 32 32 31 31 31 31 32 32 32
14 14 13 13 13 13 12 12 11 11 10 10 11 12 13 15 18 21 24 27 29 30 30 29 29 30 31 32 34 36 37 37 37 38 38 38 39 39 40 40 40 38 35 33 31 29 27 26 24 24 25 27 28 28 28 27 25 22 19 17 16 16 16 17 18 18 19 21 22 23 24 24 25 27 29 31 32 32 31 31 31 31 31 32 32 32
15 15 16 16 16 15 14 14 14 13 12 11 11 12 12 13 14 18 22 26 28 30 30 30 28 27 27 29 31 34 35 36 37 37 38 39 40 40 39 38 37 35 33 31 29 28 26 25 25 26 27 28 28 28 28 27 26 25 22 20 19 18 19 19 20 20 21 22 23 24 24 25 27 28 30 31 32 31 31 31 31 31 31 31 31 31
14 13 15 17 16 15 15 15 16 16 15 12 11 11 11 11 12 15 20 24 27 28 29 27 25 23 22 22 24 27 30 32 34 35 37 38 38 37 35 34 33 32 31 30 29 28 27 27 27 27 28 28 28 27 27 27 27 26 25 23 21 21 21 22 22 23 23 24 24 25 26 27 28 29 31 31 31 31 31 31 31 30 30 29 29 29
12 11 12 15 15 15 14 15 16 17 17 14 12 11 11 11 10 11 15 19 22 22 21 20 18 17 17 17 17 19 23 27 29 31 33 34 33 32 30 29 29 29 30 29 29 28 27 27 27 27 27 27 27 27 27 28 28 27 26 24 23 23 23 24 24 25 25 26 26 27 27 28 29 30 31 31 31 31 30 30 29 29 28 27 27 27
12 11 11 13 14 15 15 15 16 17 18 17 15 14 14 12 11 9 9 12 15 15 12 11 11 11 12 13 14 16 19 22 25 28 30 30 29 28 26 26 26 26 27 27 27 27 26 26 25 26 26 27 27 28 28 28 28 28 27 26 25 25 26 26 26 26 27 27 28 28 29 30 31 31 31 30 30 30 29 28 27 27 26 26 26 26
13 13 13 14 15 16 16 16 16 16 17 17 17 16 15 14 12 10 9 10 11 11 9 8 9 9 10 11 12 14 16 19 22 25 27 28 27 26 24 24 25 26 26 27 26 25 24 23 23 24 25 26 27 28 28 28 28 28 27 27 27 28 28 28 28 28 28 29 29 30 30 31 31 31 30 29 29 28 27 27 26 25 25 25 26 26
15 15 15 16 16 17 17 17 17 17 17 18 18 17 16 15 14 13 12 12 12 12 11 11 11 12 12 12 12 13 14 16 19 22 25 27 27 25 25 25 25 27 28 28 27 26 24 22 22 23 24 26 27 28 28 28 28 28 28 28 29 30 30 30 30 30 30 30 31 31 32 32 32 31 29 28 27 27 26 25 25 25 25 26 26 26
17 17 17 17 18 18 18 18 18 18 19 19 19 18 18 16 15 14 14 14 14 13 13 13 15 16 15 15 14 14 14 14 16 19 22 24 26 26 26 25 25 26 27 28 28 27 25 24 23 24 25 26 27 27 27 27 28 28 29 30 31 32 32 32 31 31 31 32 32 33 33 32 31 30 28 27 26 26 25 25 25 25 26 26 26 27
20 19 19 19 19 19 20 20 20 20 20 20 20 20 19 18 18 17 16 16 15 15 14 15 17 18 17 16 17 17 16 15 15 17 19 21 23 24 25 25 25 24 25 26 27 28 27 26 26 27 27 28 27 27 27 27 28 29 31 32 33 33 33 33 32 32 32 33 33 34 33 33 31 29 27 26 26 25 25 25 26 26 26 27 27 27
21 21 21 21 21 21 21 21 21 21 21 21 21 21 21 21 20 19 19 18 18 17 16 17 18 19 18 18 19 20 19 18 17 17 18 19 20 20 21 23 24 24 24 25 26 27 28 29 29 29 29 28 28 27 27 28 30 31 32 33 33 33 33 33 32 32 33 33 34 34 34 32 30 28 26 26 26 26 26 26 26 27 27 27 27 27
21 21 22 22 22 22 22 22 22 22 23 23 23 23 23 23 22 22 21 21 20 19 19 18 19 20 20 20 22 22 22 21 20 20 21 21 20 20 22 23 24 25 25 25 26 27 28 29 30 29 29 28 28 28 29 30 31 32 32 33 33 33 33 33 32 33 33 34 34 34 33 31 29 27 26 26 26 26 27 27 27 27 27 27 27 26
21 22 22 23 23 23 23 23 23 23 24 24 24 24 24 24 24 24 23 23 23 22 21 20 20 20 21 22 23 23 23 23 23 23 24 24 24 24 25 26 27 27 27 27 27 28 28 29 29 29 28 28 28 29 30 31 31 32 32 33 33 33 32 32 32 33 34 34 34 33 31 30 28 27 27 27 27 27 27 28 28 28 28 27 26 25
21 21 22 22 23 23 24 24 24 24 25 25 25 26 26 26 25 25 25 25 24 24 23 22 22 22 22 23 24 24 23 24 24 25 26 27 28 28 28 29 29 29 29 29 28 28 29 29 29 29 29 29 29 30 31 31 31 32 32 32 32 32 32 32 32 33 33 33 32 31 30 29 28 27 27 27 28 28 28 29 29 28 27 26 25 24
21 21 22 22 23 23 24 24 25 25 25 26 26 27 27 27 27 27 26 26 26 25 25 24 24 23 24 24 24 25 25 25 26 27 28 29 30 30 30 30 29 29 29 30 30 30 29 29 29 30 30 30 30 31 31 31 31 32 32 32 32 31 31 31 31 32 32 31 30 29 29 28 28 28 28 28 29 29 30 30 29 28 27 25 24 23
21 22 22 23 23 23 23 24 25 26 26 26 27 27 27 28 28 27 27 27 27 27 27 26 26 25 25 25 25 25 26 27 28 29 29 30 31 31 31 30 29 29 29 30 30 30 30 30 31 31 32 32 32 32 32 32 32 32 32 31 31 30 30 30 30 30 30 29 28 28 28 28 28 28 29 29 30 30 30 30 28 27 25 24 23 22
21 22 23 24 24 24 24 25 25 26 26 27 27 27 28 28 28 28 28 28 28 28 28 28 27 27 26 26 26 26 27 28 29 30 30 31 32 32 31 30 30 29 29 29 29 30 31 33 34 35 35 34 34 33 32 32 32 32 31 30 30 29 28 28 28 28 27 27 27 27 28 28 29 29 30 30 31 31 30 29 27 26 24 23 22 21
20 22 23 24 25 25 26 26 26 26 26 27 27 28 28 28 28 28 28 28 29 29 29 29 29 28 28 28 28 28 29 29 30 31 32 33 33 33 32 31 31 30 30 30 32 34 36 38 38 38 37 36 35 33 32 32 32 31 31 30 29 28 28 27 26 26 26 26 27 27 28 29 30 30 31 32 32 31 30 28 26 24 23 22 21 20
19 20 22 23 24 26 26 27 27 27 27 27 27 28 28 28 28 28 28 28 29 30 30 31 31 31 30 30 30 30 31 31 31 32 33 34 34 33 33 32 32 32 33 35 38 40 40 40 40 39 37 36 35 33 32 32 31 31 30 30 30 29 28 28 27 26 26 27 27 28 29 30 31 32 32 32 31 30 28 26 24 23 22 21 20 19
18 19 20 22 23 25 26 27 28 28 28 28 28 28 28 28 28 28 28 28 29 30 31 32 33 33 33 32 32 31 31 31 32 32 33 34 34 34 34 33 32 33 35 37 37 38 39 39 38 38 37 36 34 33 32 32 31 31 30 30 31 31 31 30 29 28 28 28 29 29 30 31 32 32 32 31 29 27 25 24 22 21 21 20 19 19
19 20 20 21 22 23 25 27 28 29 29 29 29 29 29 29 29 29 29 29 30 30 31 33 34 35 35 35 33 32 31 31 31 32 33 33 34 34 34 33 32 32 34 34 35 35 36 36 36 36 35 34 33 32 32 32 32 32 31 32 32 33 33 33 32 32 31 31 31 31 31 32 32 32 31 29 27 25 23 22 21 20 20 19 19 19
20 21 21 21 22 22 24 25 27 29 30 31 31 31 31 31 31 31 31 31 31 31 32 33 34 36 37 37 36 34 32 31 31 32 32 33 34 35 35 35 34 34 34 34 34 34 34 34 34 33 33 32 32 32 32 32 33 33 33 33 34 34 35 35 35 34 34 33 33 32 33 32 32 31 29 27 24 23 21 21 20 19 19 19 19 19
22 22 22 22 23 23 23 24 26 27 29 31 32 33 33 33 33 32 32 32 32 32 33 34 35 36 38 38 37 36 34 33 33 32 33 33 35 37 37 37 37 37 36 35 33 32 31 31 31 30 30 30 30 31 32 33 33 34 34 35 35 35 36 36 36 35 35 35 34 34 33 33 31 29 27 24 22 21 20 20 19 19 19 19 19 18
23 24 24 24 24 24 24 25 25 26 28 30 32 33 34 35 34 34 34 34 34 34 34 34 35 37 38 38 38 37 36 35 35 34 34 34 36 38 39 39 39 39 37 35 33 31 29 29 28 28 29 29 30 31 32 33 34 35 35 36 36 36 36 36 36 36 35 35 35 34 33 32 29 27 24 23 21 20 20 19 19 19 19 19 18 18
27 26 26 26 26 26 26 26 26 26 27 29 30 32 34 35 36 36 36 35 35 35 35 35 36 37 38 38 39 38 38 37 36 36 35 36 37 39 40 40 41 40 38 36 33 31 29 28 28 28 28 29 30 32 33 34 35 35 36 36 37 36 36 36 35 35 35 35 34 33 32 30 27 25 23 21 21 20 19 19 19 19 19 18 18 18
31 30 30 29 29 28 28 28 28 28 28 29 29 31 33 34 36 36 37 37 36 36 36 36 36 37 38 38 38 38 38 38 38 38 38 38 39 39 40 41 41 41 39 37 34 31 29 28 28 28 28 29 31 32 33 34 35 35 36 36 36 36 35 35 34 34 33 33 32 31 29 27 25 23 22 21 20 20 19 19 18 18 18 18 18 18
35 35 34 34 33 32 32 31 30 30 30 30 30 31 32 33 35 36 37 38 37 37 36 36 37 37 38 38 38 38 39 39 40 40 40 40 40 40 39 40 40 40 40 38 35 32 30 28 28 29 29 30 31 32 33 33 34 35 35 35 35 35 34 33 32 32 32 31 30 28 26 24 23 22 21 21 20 19 19 18 18 18 18 18 18 18
38 39 39 38 38 37 36 35 34 33 32 32 32 32 32 33 34 36 38 38 39 38 38 37 37 37 38 39 39 39 40 41 41 42 41 41 41 40 39 38 37 37 37 36 34 32 30 29 29 30 31 32 32 33 34 34 34 35 34 34 33 33 32 31 30 30 30 29 27 26 24 23 22 21 21 20 19 19 19 18 18 18 18 18 18 18
40 41 41 42 42 41 41 39 38 37 36 35 34 33 33 33 34 35 37 39 39 39 39 38 37 37 38 38 39 40 41 42 42 42 41 41 41 40 39 37 36 35 35 34 33 32 31 31 31 32 33 34 34 35 35 35 35 35 34 33 32 31 30 29 29 28 27 26 25 24 23 22 22 21 21 20 19 19 19 18 18 18 18 18 18 18
41 42 43 43 44 44 44 44 43 41 40 38 37 36 35 35 35 35 36 38 39 40 40 39 38 38 37 38 39 40 42 43 43 43 41 41 41 40 39 38 37 36 35 35 33 33 32 33 33 34 35 35 36 36 37 36 36 34 33 32 31 30 28 28 27 27 26 25 24 23 22 22 22 21 20 20 19 19 18 18 18 18 18 18 18 18
43 43 44 45 45 46 47 47 46 45 44 42 40 39 38 37 36 36 36 37 38 39 40 39 39 38 38 38 39 40 42 44 45 44 43 42 41 40 40 39 39 38 37 36 35 34 34 34 35 35 36 36 37 37 37 36 35 34 33 31 30 29 28 27 26 25 24 24 23 23 23 22 22 21 20 20 19 19 18 18 18 18 18 18 18 18
45 46 46 46 46 47 48 48 48 48 47 45 44 42 40 39 38 38 37 37 38 39 40 40 40 39 38 38 39 40 41 43 45 46 45 44 42 41 40 40 40 39 39 38 37 36 36 36 36 36 36 37 37 37 36 36 35 34 33 31 29 28 27 26 25 25 24 24 24 23 23 22 22 21 20 20 19 19 18 18 18 18 18 17 17 18
47 48 48 48 48 48 49 49 49 49 49 48 46 44 43 41 40 39 39 38 38 39 40 41 41 40 39 38 38 39 40 42 44 46 47 46 45 43 42 41 41 40 40 39 39 38 38 38 37 37 37 37 37 37 36 35 34 34 32 30 29 27 26 25 25 25 24 24 24 23 23 22 21 21 20 19 19 18 18 18 18 18 17 18 18 18
49 50 50 50 50 50 50 50 50 50 49 49 48 46 45 43 41 41 40 39 39 39 40 41 42 42 40 39 38 38 39 41 43 45 47 47 47 46 45 44 43 42 41 40 40 39 39 38 38 38 39 38 38 37 36 35 34 33 31 30 28 27 26 25 25 25 25 24 24 23 22 22 21 20 19 19 18 18 17 17 17 17 18 18 18 18
51 51 52 52 52 52 52 51 51 50 50 49 49 48 46 44 42 41 41 40 40 40 40 41 43 43 42 40 39 38 39 40 42 44 46 47 48 48 48 47 46 44 43 42 41 40 39 39 39 39 39 39 38 37 36 35 34 32 30 28 27 26 25 25 25 25 24 24 23 22 22 21 20 19 19 18 18 17 17 17 17 17 17 18 18 18
52 53 54 54 54 54 54 53 52 50 50 49 49 48 46 44 43 42 41 41 41 40 40 41 43 44 44 42 40 39 39 40 42 44 46 47 48 49 49 48 47 46 44 42 41 40 40 39 39 39 39 38 38 37 35 34 32 30 28 27 26 25 25 25 25 24 23 23 22 21 21 20 19 19 18 18 17 17 17 17 17 17 17 18 18 18
54 55 55 56 56 56 55 54 52 51 50 49 48 47 46 44 43 42 41 41 41 41 40 41 42 43 44 44 42 40 38 39 40 43 45 46 48 49 49 49 48 46 44 43 42 41 40 39 39 38 38 37 36 35 34 33 31 29 27 26 25 25 25 25 24 23 23 22 21 20 20 19 19 18 18 17 17 16 17 17 17 17 18 18 18 18
55 56 57 57 57 57 56 54 52 51 49 48 47 47 46 44 43 41 41 41 41 41 41 41 41 42 44 44 43 41 39 38 38 40 42 45 46 48 48 48 47 46 44 43 42 40 39 38 37 36 36 35 35 34 32 31 29 27 26 26 25 25 25 25 24 23 22 21 20 20 19 19 18 17 17 17 16 16 17 17 17 17 18 18 18 18
57 58 58 58 58 57 56 54 52 50 48 47 47 46 45 44 42 41 40 40 41 41 41 40 41 42 43 44 44 42 39 37 36 37 39 41 44 45 46 47 46 46 45 43 41 40 38 37 36 35 34 34 33 32 31 29 28 27 26 26 26 25 25 24 24 23 22 21 20 19 19 18 17 17 16 16 16 17 17 17 17 18 18 18 18 17
58 59 59 59 58 56 54 52 50 48 47 46 46 45 44 43 42 41 40 40 40 40 40 40 40 40 42 43 44 43 41 37 35 34 35 37 40 42 43 45 45 45 45 43 41 39 37 36 35 34 33 33 32 31 29 28 27 27 26 26 26 25 25 24 23 22 22 21 20 19 18 17 17 17 16 16 17 17 17 17 18 18 18 18 18 17
60 60 60 59 57 55 52 50 48 47 45 45 44 44 43 42 41 40 40 40 40 40 40 40 40 40 40 42 44 44 42 39 35 33 32 34 36 38 40 42 43 44 43 42 41 40 38 37 36 34 33 32 31 30 29 28 27 27 27 26 26 25 24 24 23 22 21 20 20 19 18 17 17 17 17 17 17 17 17 18 18 18 18 18 17 17
61 61 60 58 55 52 50 48 46 45 44 43 43 43 42 41 40 39 39 39 39 40 40 40 39 39 40 41 42 43 42 40 37 33 31 31 33 35 37 39 40 41 42 41 41 40 39 38 36 35 33 32 30 30 29 28 28 27 27 26 26 25 24 23 22 22 21 20 19 18 17 17 17 17 17 17 17 17 18 18 18 18 18 18 17 17
62 61 59 56 53 50 47 45 44 43 42 42 42 41 41 40 39 38 38 38 39 39 39 39 39 39 39 40 41 42 42 41 38 34 31 30 31 32 35 37 39 40 41 41 41 40 39 38 36 35 33 32 31 30 29 29 28 28 27 27 26 25 24 23 22 21 20 20 19 18 17 17 17 17 17 17 18 18 18 18 18 18 18 18 17 17
61 59 57 53 50 47 45 43 42 41 41 40 40 40 39 39 38 37 37 38 38 38 39 39 38 38 38 39 40 41 42 42 40 36 32 29 29 30 33 35 38 39 41 41 41 41 40 39 37 35 33 32 31 30 30 30 29 28 27 27 26 25 24 23 22 21 20 19 18 17 17 17 17 17 17 18 18 18 18 18 18 18 18 18 17 17
60 57 54 50 47 45 43 42 41 40 39 39 39 39 38 38 37 36 36 37 37 38 38 38 38 37 37 38 39 40 41 42 42 39 35 30 28 29 31 33 36 39 41 42 42 42 41 39 37 35 34 33 32 31 31 30 29 28 27 27 26 25 24 23 22 21 20 19 18 17 17 17 17 17 17 18 18 18 18 18 18 18 18 18 17 17
58 54 50 47 44 43 41 40 39 39 38 38 38 38 37 37 36 36 36 36 36 37 37 37 37 36 36 36 37 38 40 42 43 41 38 33 29 28 29 31 34 37 39 41 42 42 41 39 37 36 35 34 33 32 31 30 29 28 27 27 26 25 24 23 22 21 20 19 18 17 17 17 17 17 18 18 18 18 18 19 19 18 18 18 17 16
Wind_Direction
156 161 166 171 176 181 185 189 193 196 199 202 206 210 214 217 220 222 223 225 226 226 225 224 225 225 223 219 215 212 211 211 212 214 217 220 224 226 228 229 229 228 228 227 228 230 230 230 227 223 220 221 225 230 233 233 232 232 236 242 248 253 255 256 257 257 258 259 261 263 264 267 269 272 274 277 278 279 278 277 277 278 279 280 282 284
158 164 168 173 178 183 187 192 196 200 204 208 211 215 218 220 222 223 224 224 225 225 225 225 226 226 223 221 220 221 219 217 216 217 218 221 224 227 230 231 230 228 226 227 231 235 237 234 229 224 222 223 227 230 230 229 227 229 235 243 250 254 256 257 258 259 260 261 263 264 265 267 270 273 278 281 282 281 279 277 277 278 280 281 283 285
161 167 173 178 183 188 192 197 201 206 211 215 218 220 222 224 224 224 224 224 224 224 224 224 224 223 222 223 227 229 225 221 218 218 220 222 225 228 230 231 230 229 228 232 236 239 238 235 231 227 225 227 229 230 229 226 224 227 234 244 252 256 259 260 260 261 262 264 265 265 266 268 272 277 282 284 284 281 279 277 278 279 281 283 284 285
159 169 178 184 190 194 198 202 206 211 216 219 223 225 226 227 227 226 226 225 224 223 222 222 220 219 220 224 229 229 224 218 216 218 221 224 227 229 232 233 233 233 233 236 237 236 233 232 231 229 229 230 232 231 228 225 223 226 234 244 253 258 261 262 262 263 264 266 267 267 268 270 275 281 286 287 285 281 279 278 279 281 283 284 285 285
156 165 176 184 190 195 199 203 207 212 217 222 226 228 229 230 229 228 228 227 225 223 222 221 219 219 221 226 227 225 218 214 214 217 222 227 230 232 235 237 238 237 237 236 233 230 229 229 229 230 231 232 233 231 228 225 224 227 234 245 255 261 264 265 265 266 266 268 269 269 270 273 278 285 288 287 285 282 280 280 282 283 284 285 285 286
157 164 172 178 181 184 189 195 200 204 211 218 224 229 232 232 231 231 229 228 226 225 224 224 225 227 229 229 225 219 213 211 211 215 220 226 230 233 236 238 239 238 236 232 228 226 225 226 227 229 231 232 233 232 230 227 227 229 236 247 257 265 269 271 272 272 273 273 272 271 272 275 281 286 288 287 285 282 282 284 285 286 286 286 287 287
160 166 173 176 176 176 178 181 184 187 191 202 212 218 224 228 231 232 232 231 229 229 230 232 234 236 235 230 223 216 213 211 212 214 218 222 227 230 233 234 235 234 231 227 223 222 222 222 223 226 228 231 232 233 232 231 231 234 240 250 260 268 274 278 282 284 284 282 279 276 276 279 284 287 288 286 285 284 285 287 287 288 287 288 288 289
168 172 172 172 171 172 173 176 177 180 186 201 210 210 209 214 223 229 233 234 234 234 235 236 237 235 230 225 220 217 215 215 216 216 218 220 223 225 227 228 228 226 222 219 217 217 218 218 220 223 227 231 233 235 235 235 236 239 244 253 262 271 278 284 289 291 291 289 285 282 281 283 286 287 287 286 285 286 287 288 289 289 288 289 289 290
182 180 170 166 168 171 175 178 180 185 194 212 224 224 215 212 216 224 229 231 230 230 229 229 227 224 220 217 217 217 217 217 218 218 218 218 219 220 220 219 218 216 214 213 213 214 216 218 221 224 229 233 237 239 240 240 241 243 247 255 264 273 280 286 289 292 292 291 289 287 286 286 286 286 286 285 286 287 288 289 289 289 289 290 291 291
194 188 171 167 172 180 184 186 188 193 201 214 227 234 232 224 221 223 225 221 217 216 218 220 220 218 214 211 211 213 214 214 213 213 213 213 212 212 210 210 211 211 212 212 213 215 217 220 224 229 233 238 241 243 244 245 245 246 249 256 264 273 280 284 287 289 291 291 290 289 288 287 286 285 285 285 286 287 287 287 288 288 290 291 292 292
203 199 188 184 187 194 198 199 200 203 210 218 225 231 231 229 228 227 222 209 203 204 216 229 233 228 222 216 212 210 209 207 206 205 204 204 203 203 204 207 210 214 216 217 218 219 222 226 230 235 239 242 245 247 248 249 248 248 251 257 265 272 278 282 285 288 290 291 291 290 289 287 286 285 284 284 285 285 286 286 287 288 290 291 292 292
215 213 210 207 207 210 212 213 214 216 220 225 230 233 233 233 232 230 222 209 203 209 227 250 259 254 245 235 226 218 212 208 204 201 200 198 197 198 204 211 217 222 225 226 226 227 229 233 238 242 245 247 249 250 251 251 250 250 253 259 266 272 277 281 285 288 290 290 290 289 288 286 285 283 283 283 283 283 284 285 287 289 290 291 292 292
230 228 226 225 225 225 226 227 227 228 230 233 236 238 237 236 234 232 228 222 217 216 221 237 251 259 261 257 248 237 227 218 212 208 205 202 201 203 210 217 223 226 228 230 230 232 236 242 247 249 250 251 252 252 252 252 251 252 255 261 267 273 278 282 285 287 289 289 288 287 286 285 283 282 281 281 281 282 283 285 287 289 290 291 291 292
244 242 240 238 237 237 237 237 237 238 238 240 241 242 241 240 237 235 232 230 227 221 217 227 237 243 248 256 259 255 245 235 225 218 215 213 212 213 217 222 225 226 226 227 229 232 237 243 248 251 252 252 252 252 251 251 251 254 258 264 269 274 279 282 285 286 287 286 286 285 284 282 281 280 279 280 280 281 283 285 288 289 290 291 291 291
252 251 249 247 245 244 243 242 243 243 243 244 244 245 245 244 242 239 237 236 233 228 220 222 230 235 235 243 254 258 254 246 237 228 222 219 220 221 225 228 229 228 226 225 225 227 231 237 242 246 248 249 250 250 250 251 253 257 262 267 272 276 280 282 284 285 285 284 283 283 281 279 278 277 277 278 280 282 284 286 288 289 290 290 290 289
255 254 253 251 249 248 246 246 245 245 245 246 246 247 247 247 246 244 243 242 239 236 230 225 227 230 232 235 243 251 252 249 242 234 227 223 223 227 233 236 237 236 233 230 229 229 231 235 238 241 244 246 247 249 251 254 258 262 266 271 275 278 281 282 283 283 282 281 281 280 278 276 274 274 275 277 280 282 285 287 288 289 289 288 288 287
256 255 254 253 252 250 249 248 247 247 247 247 247 248 248 248 248 247 247 246 245 242 239 234 230 230 230 231 235 241 245 246 243 237 231 229 232 237 244 246 245 243 240 238 237 236 236 237 239 240 242 244 246 250 254 258 262 267 271 275 278 280 281 282 281 281 280 279 278 276 274 272 271 271 273 276 280 283 285 287 288 288 287 286 285 284
257 256 256 255 253 252 251 249 248 248 247 248 248 248 248 248 248 248 248 247 247 246 244 241 238 235 233 233 234 236 239 242 241 239 235 235 237 243 247 248 246 244 242 242 241 241 240 239 239 239 241 244 249 254 259 263 267 271 275 278 280 281 281 280 279 279 277 276 274 272 269 267 267 269 272 276 280 283 286 287 287 286 285 283 282 281
258 257 257 256 255 254 252 251 250 249 248 248 248 248 248 248 248 247 247 247 247 247 246 245 243 241 239 238 238 237 238 240 240 238 238 237 239 242 244 245 244 243 241 241 241 241 240 238 237 239 243 248 254 260 264 267 271 275 278 280 281 281 280 279 278 277 275 273 270 267 265 264 265 268 272 276 280 284 286 286 286 284 282 281 279 278
259 258 257 257 256 255 254 252 251 250 248 248 248 248 248 248 247 247 247 247 246 246 246 245 244 242 241 241 241 241 240 241 240 240 239 240 241 242 243 244 244 242 240 240 239 239 238 238 239 243 249 255 260 264 266 269 273 277 279 280 280 280 280 279 277 275 272 269 266 264 262 262 264 268 273 277 281 284 285 285 284 282 279 277 276 274
261 260 259 258 257 256 255 254 252 251 249 248 247 247 247 247 247 247 246 246 246 245 245 243 242 241 240 241 242 242 242 242 241 241 241 241 242 243 244 245 245 243 240 237 236 237 238 241 246 251 257 261 264 265 267 270 274 277 279 280 280 280 279 278 276 273 269 266 263 261 261 263 266 270 274 279 282 284 284 283 281 279 276 274 272 271
264 262 261 259 258 257 256 255 254 253 251 250 248 247 246 246 246 246 246 246 245 245 244 242 240 240 239 241 243 244 244 243 242 241 240 241 242 244 245 246 245 242 239 236 237 240 246 251 255 259 261 263 263 264 266 270 274 277 278 279 279 280 279 278 275 271 268 265 262 262 262 265 268 272 276 280 282 283 283 281 278 275 272 270 268 268
269 266 264 262 260 259 258 257 256 255 253 252 250 249 248 247 247 247 247 246 245 244 243 241 240 239 239 241 244 246 246 245 243 242 240 240 240 241 243 244 244 244 245 247 252 256 258 260 260 261 261 261 261 263 265 269 273 276 277 278 279 279 279 277 274 271 267 265 263 263 265 268 271 274 277 280 281 281 280 277 273 270 267 265 265 266
275 272 269 266 264 262 260 258 257 256 255 254 252 251 249 248 248 248 248 247 246 245 243 241 240 238 238 240 244 247 248 247 245 243 242 241 240 239 240 240 243 249 256 261 264 264 263 261 260 259 259 259 259 261 264 268 271 274 276 277 279 279 279 277 275 272 269 267 266 266 268 270 273 276 278 280 280 279 276 272 268 264 262 262 263 265
280 277 274 271 268 265 262 260 259 257 256 254 253 252 251 250 249 249 249 249 248 246 244 241 239 238 237 239 244 248 249 248 246 245 244 243 242 240 239 239 244 253 262 265 265 263 261 259 257 257 256 256 257 260 263 266 269 272 274 277 278 279 279 278 276 274 271 270 269 270 272 274 276 278 279 279 277 274 270 265 261 259 258 259 262 265
282 280 278 275 273 270 266 263 261 258 256 255 253 252 252 251 251 251 251 251 250 248 246 243 241 239 238 239 242 246 249 249 248 246 245 245 243 241 240 240 245 253 260 262 261 259 257 256 255 254 254 254 256 259 263 266 269 272 274 276 278 278 278 277 276 275 274 273 273 274 275 277 278 279 279 277 273 268 263 258 256 255 256 259 262 264
286 283 281 279 277 274 271 268 264 261 258 255 253 251 251 251 251 251 252 252 252 250 248 246 244 242 240 240 241 244 247 248 248 248 248 246 244 241 239 240 243 249 253 255 255 254 253 252 252 252 252 254 256 260 263 267 270 272 274 276 277 277 277 276 275 275 274 274 275 276 277 278 278 278 276 272 267 261 256 253 252 253 256 259 261 263
291 288 285 283 280 278 275 273 269 265 262 258 255 252 250 250 250 250 251 251 252 251 250 248 246 245 243 242 242 243 245 246 248 249 249 249 246 242 240 240 241 244 247 250 251 251 250 250 250 251 252 255 258 261 264 267 270 272 274 274 275 275 275 274 274 273 273 274 275 276 276 277 276 274 270 265 258 253 250 249 250 253 256 259 261 262
295 292 290 287 284 281 279 276 273 270 267 263 259 255 252 251 250 250 250 250 251 251 250 249 248 246 245 244 243 243 244 245 246 248 250 250 248 246 243 242 242 243 244 247 248 249 249 249 250 252 254 257 260 263 265 267 269 270 271 272 272 272 272 272 271 271 272 272 273 274 274 274 272 268 262 256 250 247 246 247 249 252 256 258 260 260
299 297 294 291 288 285 282 279 276 273 270 267 264 260 256 253 252 250 249 249 249 249 249 249 248 247 246 245 244 244 244 246 247 248 249 251 250 249 247 245 244 243 244 245 246 248 250 251 253 255 258 261 263 265 266 267 268 269 269 270 270 270 270 269 269 269 269 270 271 271 271 269 265 260 253 247 244 243 243 246 249 252 255 257 258 259
304 302 299 296 293 290 286 283 279 276 273 270 267 264 261 258 254 251 249 248 248 248 248 248 248 248 247 246 245 245 246 247 248 249 250 251 251 251 250 248 246 244 243 243 245 248 251 253 255 258 261 263 265 266 267 268 268 268 268 268 268 268 268 268 267 267 267 268 268 267 266 262 257 250 245 241 240 240 243 246 249 252 254 256 257 257
305 304 302 300 297 295 291 288 284 280 276 272 269 266 264 261 258 254 251 249 247 247 246 247 247 247 246 245 244 243 245 246 248 249 250 251 253 254 254 252 248 244 242 242 244 248 251 254 257 260 263 265 267 268 269 269 269 269 269 268 268 267 267 266 265 265 265 265 264 262 259 253 247 242 238 237 237 239 242 245 248 251 253 254 255 255
305 305 304 302 300 298 296 293 289 285 281 276 272 268 265 262 260 257 254 251 248 247 246 246 246 246 246 244 242 241 242 244 246 249 251 253 256 257 256 254 249 244 241 241 243 247 251 255 259 262 264 266 267 268 269 269 270 270 269 269 268 267 265 264 263 262 262 261 259 255 250 245 239 236 235 235 236 239 242 245 247 250 251 252 253 253
304 304 304 303 302 301 298 296 293 290 286 281 276 271 267 264 261 258 256 253 250 248 246 245 245 245 245 244 242 240 239 242 244 247 250 254 256 257 255 252 247 243 240 240 242 246 250 255 259 263 265 266 267 268 268 269 270 270 270 269 267 265 263 261 260 259 258 255 252 247 242 237 234 232 233 234 236 239 242 244 246 248 249 250 250 251
302 302 302 303 302 302 300 298 296 293 290 286 281 276 271 266 263 259 257 254 251 249 247 245 244 244 244 244 242 240 238 239 241 244 247 250 253 253 252 248 244 240 238 239 241 246 250 255 260 263 266 266 266 266 267 268 270 271 270 268 265 262 260 258 256 255 252 248 243 238 234 232 230 230 231 233 236 238 241 243 245 247 248 248 248 249
302 302 301 302 302 301 301 299 297 295 292 289 285 280 275 270 265 261 258 255 252 249 247 245 244 244 243 243 242 241 239 239 239 240 242 244 246 248 248 246 243 241 240 241 244 248 252 257 261 263 265 266 266 265 266 267 269 270 269 266 263 260 257 255 252 249 245 240 235 231 229 228 228 229 230 233 235 237 240 242 244 245 246 246 246 248
301 301 301 301 301 301 300 299 297 295 293 290 286 282 278 272 268 263 260 256 252 249 246 244 243 243 243 243 243 242 241 240 239 239 239 239 241 242 243 243 243 243 244 245 248 251 255 259 262 264 265 265 265 265 265 267 268 268 267 264 261 258 255 251 247 242 237 232 229 227 225 225 226 227 229 231 234 236 239 241 242 243 244 244 245 247
301 301 301 301 301 301 300 299 297 295 292 290 287 283 279 274 269 265 261 258 254 250 246 243 241 241 241 242 243 243 242 241 239 238 238 237 237 238 238 240 241 243 245 247 250 253 257 260 262 264 265 264 264 264 265 266 267 266 265 263 259 256 252 246 240 235 230 227 225 224 223 224 225 227 229 231 233 235 238 239 241 242 242 242 244 246
300 301 301 301 301 301 300 299 297 294 291 288 285 282 279 274 270 266 262 259 256 252 247 243 240 239 239 240 241 242 242 241 240 238 238 237 236 236 236 237 239 241 243 246 249 252 255 258 261 262 263 263 263 263 264 265 265 264 263 260 256 251 246 240 234 229 225 223 222 222 222 223 224 226 228 230 232 235 237 238 239 240 240 241 243 246
300 301 301 301 301 301 300 299 296 293 290 286 283 280 277 274 270 266 262 259 257 253 249 245 241 239 237 237 238 239 240 240 240 239 238 237 236 236 236 237 237 239 241 244 246 250 253 255 258 259 260 260 261 262 263 264 263 262 259 256 251 245 239 233 228 224 222 220 220 220 221 222 224 226 228 230 232 234 236 238 238 239 240 241 243 246
301 301 301 302 302 301 300 298 296 292 288 284 281 278 275 272 269 265 262 259 257 254 251 247 243 239 237 236 236 237 238 238 239 239 238 237 237 237 237 237 238 239 240 242 245 248 250 253 255 256 256 257 259 260 261 261 260 258 254 249 243 237 231 227 223 221 219 218 219 219 221 222 224 226 228 230 232 234 236 237 238 238 239 241 243 247
301 302 302 302 302 301 300 298 294 290 286 281 278 275 272 270 267 264 261 259 256 254 252 249 245 242 239 236 235 235 235 236 237 237 237 237 237 237 237 238 238 239 240 241 243 246 248 250 251 252 253 254 256 257 258 258 255 252 247 241 235 229 225 222 220 218 217 217 218 219 220 222 223 226 228 230 232 234 235 236 237 237 239 241 243 247
302 302 303 302 302 301 299 296 292 288 283 278 275 272 269 267 265 262 260 258 256 254 252 249 246 243 240 237 235 234 235 235 236 236 235 235 235 236 236 237 237 238 238 240 241 243 245 246 247 248 249 251 253 254 254 252 249 244 238 232 227 223 221 219 217 216 216 216 217 219 220 221 223 225 228 230 232 233 234 235 236 237 238 240 243 247
303 303 303 302 301 300 297 293 289 284 280 275 272 269 267 265 263 260 258 256 254 253 251 249 247 244 241 238 236 234 234 234 235 235 234 234 233 233 234 234 235 235 236 237 238 239 240 241 242 243 245 248 249 250 248 245 241 235 230 225 221 218 217 216 215 214 215 216 217 219 220 221 223 225 227 230 232 234 234 235 235 237 238 241 243 247
304 304 303 302 300 297 293 289 285 281 276 272 269 266 264 262 260 258 257 255 253 252 250 249 247 245 242 239 236 234 233 233 234 234 234 233 232 231 231 231 231 232 232 233 233 234 234 235 237 239 241 243 244 244 241 237 232 228 223 219 217 215 214 213 213 213 214 216 218 219 220 221 223 225 227 230 232 234 235 235 236 236 238 240 244 247
304 304 303 301 298 294 289 285 281 277 273 270 267 264 262 260 258 257 255 253 252 251 249 248 247 245 243 240 237 235 233 232 232 233 233 232 231 229 228 228 228 228 228 229 229 229 230 231 232 234 235 237 238 237 234 230 225 221 218 215 214 213 212 212 212 213 215 217 218 220 221 222 224 226 228 231 233 234 235 236 236 237 238 241 243 247
305 304 302 299 295 290 285 280 276 273 270 267 265 263 261 259 257 255 253 252 250 249 248 247 246 245 243 240 237 235 233 231 230 230 231 232 231 229 227 226 225 225 225 225 225 225 226 227 228 230 231 231 231 229 227 223 219 216 214 212 211 211 211 212 213 214 216 218 219 220 221 223 225 227 229 231 233 235 236 237 237 237 238 241 244 248
305 303 300 296 290 285 280 276 272 269 267 265 263 261 259 257 255 253 251 250 249 248 247 247 246 244 242 240 237 235 233 230 228 228 229 230 230 229 227 226 225 224 224 223 223 223 224 224 225 225 226 225 224 223 220 217 214 212 211 210 209 210 211 212 214 216 217 219 220 221 223 224 226 228 230 232 234 235 236 237 237 238 238 241 244 248
304 301 297 291 286 280 275 272 269 267 265 263 261 259 257 255 253 251 250 249 248 247 246 245 245 244 242 240 237 235 232 229 227 226 227 228 229 229 228 227 226 225 224 223 222 222 222 222 222 221 221 221 220 218 215 213 211 209 208 208 208 209 211 213 215 217 219 220 221 222 224 225 227 229 231 233 234 235 236 237 237 237 238 241 244 247
302 298 293 287 281 276 272 269 266 264 262 261 259 258 256 254 252 250 248 247 246 246 245 244 244 243 242 239 237 234 232 229 226 225 224 225 227 228 228 228 227 226 225 224 223 223 222 221 219 217 216 216 215 214 212 210 208 207 207 207 208 209 211 213 215 217 219 221 222 223 225 226 228 230 232 233 234 235 236 237 237 237 238 240 243 246
299 294 288 282 277 272 269 266 264 262 260 259 257 256 254 252 250 248 246 245 245 244 244 243 243 242 241 239 236 234 231 228 226 224 223 223 224 226 227 228 228 227 226 226 225 224 223 221 219 215 213 212 212 211 210 208 207 207 207 208 209 210 211 213 215 217 219 221 222 224 225 227 229 231 233 234 234 235 235 236 237 237 238 239 242 245